Zurück zum Katalog

STARLINK-11176

AktivKommunikationVLEO
NORAD 60060·PAYLOAD·🇺🇸 United States

Gestartet Jun 19, 2024 von Vandenberg Space Force Base

Loading…

Nächste Überflüge (nächste 24 Stunden)

TLE

AktuellSource: CelesTrak SupGP

Epoche: Sep 14, 2026, 21:17 UTC

1 60060C 24113B   26257.88729167 -.00052626  00000+0 -43335-3 0  2573
2 60060  53.1563 338.6101 0001138  77.5586   1.8453 15.69743829    16

Verfolge STARLINK-11176 in Echtzeit mit AllMySat

Download on the App Store